Location: G�migny
(47.9646°N, 1.6950°E)
Time: 13:41:03
(UTC+00:00)

Envisat - Pass Details

Date: 23 October 2019
Orbit: 764 x 766 km, 98.1° (Epoch: 14 November)

Event Time Altitude Azimuth Distance (km) Brightness Sun altitude
Rises 17:18:46 0° 150° (SSE) 3,222 6.0 -5.4°
Reaches altitude 10° 17:21:07 10° 145° (SE) 2,300 5.2 -5.8°
Maximum altitude 17:26:01 53° 70° (ENE) 945 3.2 -6.6°
Drops below altitude 10° 17:30:58 10° 355° (N) 2,315 5.5 -7.4°
Sets 17:33:19 0° 351° (N) 3,245 6.3 -7.8°
